{"data":{"norad_id":57519,"intl_designator":"2023-116A","name":"HJ-2F","alt_names":[],"object_type":"PAYLOAD","status":"ACTIVE","operator":null,"country":"PRC","launch_date":"2023-08-08","launch_site_code":"TAISC","launch_vehicle":null,"mission":null,"orbit_class":"UNKNOWN","rcs_meters":null,"size_class":null,"mass_kg":null,"dimensions":null,"purposes":[],"wikipedia_slug":null,"has_3d_model":false,"image_url":null,"decayed_at":null,"tle_current":{"epoch":"2026-09-21T22:47:11.710176Z","epoch_age_seconds":85608,"freshness":"FRESH","line1":"1 57519U 23116A   26264.94944109  .00004190  00000+0  19701-3 0  9994","line2":"2 57519  97.3894 268.4852 0007621 175.1659 184.9651 15.20101050173475","mean_motion":15.2010105,"eccentricity":0.0007621,"inclination_deg":97.3894,"raan_deg":268.4852,"arg_perigee_deg":175.1659,"mean_anomaly_deg":184.9651,"bstar":0.00019701,"rev_number":17347,"period_min":94.730544393743,"perigee_km":500.28948471172,"apogee_km":510.7815783843,"semimajor_km":6883.672531548,"source":"CELESTRAK","updated_at":"2026-09-22T09:00:26.209601Z"}}}